Location: Gauravaram
(16.7935°N, 80.5986°E)
Time: 06:42:26
(UTC+00:00)

Daily predictions for brighter satellites

Satellite Brightness Start Highest point End
(mag) Time Altitude Azimuth Time Altitude Azimuth Time Altitude Azimuth
NOSS 3-4 (A) 4.2 12:16:42 10° NNW 12:24:31 76° ENE 12:33:15 10° SSE
NOSS 3-4 (C) 4.2 12:16:48 10° NNW 12:24:36 75° ENE 12:33:19 10° SSE
Cosmos 1833 Rocket 3.2 12:19:40 10° N 12:24:48 36° ENE 12:29:53 10° SE
Cosmos 2251 Rocket 3.5 12:22:11 10° S 12:27:23 83° ESE 12:32:40 10° NNE
SKYMED 2 3.5 12:25:44 10° NNE 12:30:05 83° ESE 12:34:24 10° S
CZ-2D R/B 2.6 12:26:57 10° SSE 12:30:05 73° ENE 12:33:13 10° N
IRS-P3 4.4 12:25:59 10° SSE 12:31:04 46° ENE 12:36:07 10° N
COSMO-SKYMED 1 2.6 12:27:42 10° NNE 12:31:43 53° E 12:35:43 10° S
SAR-Lupe-1 4.0 12:30:43 10° SSE 12:34:16 88° ENE 12:37:48 10° N
GPS 2-15 Rocket1 3.1 12:39:58 10° WSW 12:44:41 81° SSE 12:48:27 15° E
USA 276 0.3 12:44:41 10° SSW 12:45:50 41° SE 12:45:50 41° SE
YAOGAN 1 3.7 12:42:54 10° SE 12:46:07 21° ENE 12:49:21 10° NNE
Centaur AC-119 4.5 12:42:22 10° WNW 12:48:00 38° N 12:54:20 15° ENE
ARIANE 5 R/B 2.9 12:43:36 10° S 12:48:33 67° WSW 12:53:28 10° NNW
Aureole 3 Rocket 3.9 12:45:39 10° SSW 12:49:17 41° W 12:52:19 10° NNW
USA 215 3.8 12:46:20 10° ESE 12:52:10 36° NE 12:58:00 10° NNW
Helios 1A Rocket 3.4 12:51:41 10° N 12:54:57 48° WNW 12:58:13 10° SSW
Cosmos 1464 Rocket 4.0 12:48:51 10° S 12:55:12 82° E 13:01:30 10° N
CZ-2D R/B 3.7 12:52:46 10° SSE 12:56:32 42° ENE 13:00:25 10° N
Okean 2 Rocket 3.0 12:54:44 10° S 12:59:09 71° E 13:03:31 10° N
GPS 2-12 Rocket1 4.1 12:55:59 10° W 13:00:18 41° SSW 13:04:39 10° SE
SJ 16-02 1.8 12:57:00 10° SSW 13:01:14 60° WNW 13:05:28 10° N
Meteor 2-12 Rocket 4.4 12:55:24 10° N 13:01:28 85° E 13:07:30 10° S
Cosmos 1602 3.9 13:03:26 30° E 13:03:26 30° E 13:05:49 10° SSE
Cosmos 2034 Rocket 3.9 13:00:51 10° S 13:06:54 63° E 13:13:00 10° NNE
Cosmos 676 Rocket 4.1 13:02:29 10° SSW 13:07:47 81° WNW 13:13:05 10° N
SPOT 1/Viking Rocket 3.4 13:07:42 10° SSE 13:12:49 76° ENE 13:17:57 10° N
Delta 2 Rocket 4.4 13:10:37 10° NNW 13:13:52 25° NNE 13:13:52 25° NNE
Cosmos 2297 4.1 13:15:43 10° S 13:21:00 39° ESE 13:22:24 34° ENE
Cosmos 1400 Rocket 4.1 13:17:35 10° SSW 13:21:10 39° W 13:24:44 10° NNW
Cosmos 1536 Rocket 3.7 13:17:49 10° N 13:22:03 47° E 13:26:14 10° SSE
Cosmos 2058 2.6 13:18:53 10° N 13:22:50 75° E 13:26:48 10° S
NOAA 15 4.5 13:18:40 10° SSE 13:23:54 76° ENE 13:29:11 10° N
Cosmos 2369 Rocket 2.4 13:20:31 10° S 13:25:47 45° ESE 13:27:04 39° ENE
SJ-7 4.2 13:26:02 10° S 13:29:43 77° WSW 13:33:23 10° NNW
Spot 4 Rocket 4.0 13:27:52 10° S 13:32:57 81° WSW 13:38:02 10° NNW
Timation 1 Rocket 4.4 13:28:16 10° N 13:33:59 48° ENE 13:36:02 35° ESE
BlueWalker 3 4.0 13:34:03 10° W 13:36:50 20° NW 13:38:07 17° NNW
Cosmos 968 Rocket 3.3 13:34:01 10° SSW 13:39:06 90° WNW 13:41:06 38° NNE
Cosmos 1455 Rocket 2.8 13:36:22 10° S 13:40:28 77° SE 13:40:28 77° SE
Cosmos 1741 Rocket 3.8 13:38:40 10° S 13:43:50 69° ESE 13:44:10 67° ENE
ATLAS 5 CENTAUR R/B 2.3 13:41:21 10° NNW 13:46:54 86° WSW 13:53:32 10° SSE
Tiangong 0.5 13:48:07 10° NW 13:48:57 17° NW 13:48:57 17° NW
BREEZE-M DEB (TANK) 3.4 13:42:14 10° SW 13:52:11 74° NW 13:52:37 67° N
Delta 198 4.0 13:47:21 10° WNW 13:52:47 69° NNE 13:52:50 69° NNE
SL-4 R/B 3.4 13:55:01 10° NW 13:57:31 33° W 13:57:31 33° W
NOAA 6 4.2 13:53:29 10° S 13:58:36 70° WSW 14:03:43 10° NNW
Cosmos 332 Rocket 4.3 13:58:06 10° SSW 14:01:55 55° SSW 14:01:55 55° SSW
Cosmos 540 Rocket 4.4 14:04:17 10° NNW 14:09:06 44° W 14:13:54 10° S
Delta 7925 Rocket 4.2 14:05:32 10° W 14:10:46 55° NNW 14:10:46 55° NNW
Intelsat 5-1 Rocket 3.7 14:17:44 10° W 14:23:00 64° N 14:23:11 64° N
USA 215 4.4 14:29:16 11° S 14:34:56 39° SW 14:40:56 10° WNW
VEP-3 4.2 15:02:31 10° WNW 15:05:12 33° W 15:05:12 33° W
CZ-3 R/B 3.8 20:41:57 10° WSW 21:31:00 79° NNW 21:42:03 10° ENE
CZ-3 Stage 3 3.9 21:36:38 70° ESE 21:36:38 70° ESE 22:00:10 10° ENE
SL-16 R/B 4.2 21:42:53 10° SE 21:47:59 28° ENE 21:48:03 28° ENE
ATLAS CENTAUR Rocket 4.2 22:01:45 21° E 22:01:45 21° E 22:03:10 10° E
Cosmos 1943 Rocket 3.9 22:19:09 23° NE 22:20:58 27° ENE 22:25:33 10° SE
Cosmos 2278 Rocket 4.0 22:18:47 20° NNE 22:21:09 26° ENE 22:25:49 10° SE
Hubble Space Telescope 2.1 22:48:13 34° ESE 22:48:13 34° ESE 22:50:51 10° E
IUS-1 SRM-2 4.4 22:48:17 39° NW 22:50:11 44° N 22:54:25 10° ENE
USA 229 DEB 3.6 22:55:55 46° NNW 22:55:55 46° NNW 23:00:24 10° NNE
Cosmos 1140 Rocket 3.6 22:55:37 55° SSW 22:55:37 55° SSW 22:59:48 10° S
USA 229 3.6 22:56:02 47° NNW 22:56:02 47° NNW 23:00:37 10° NNE
DASH 3.2 22:59:24 48° W 23:01:00 71° SSW 23:04:15 10° SE
GPS 2-17 Rocket1 3.5 23:07:31 41° SSW 23:07:36 42° SSW 23:11:37 10° SE
SL-16 R/B 2.3 23:10:34 42° WSW 23:11:38 47° WNW 23:17:04 10° N
UNK 3.7 23:07:29 10° SSE 23:12:00 80° ENE 23:15:25 18° N
ATLAS 3B R/B 3.1 23:11:24 29° WSW 23:14:36 44° WNW 23:21:47 10° N
SJ 16-02 3.9 23:15:21 10° NNE 23:18:21 19° ENE 23:21:21 10° ESE
SJ-11-01 4.1 23:14:15 10° N 23:18:56 82° WNW 23:23:37 10° SSW
Cosmos 1459 Rocket 4.3 23:19:02 29° NW 23:21:31 40° W 23:27:15 10° SSW
Cosmos 1331 Rocket 4.1 23:16:24 10° S 23:21:39 76° ESE 23:26:53 10° NNE
SWIFT 1.6 23:21:45 68° NNW 23:22:01 73° N 23:25:26 10° E
Aureole 3 4.3 23:18:44 10° SSW 23:25:14 68° W 23:30:56 10° N
SAR-Lupe-3 4.0 23:26:05 10° SSE 23:28:43 67° E 23:29:43 33° N
Centaur D-1A AC-35 3.3 23:27:07 25° WSW 23:29:00 34° SW 23:32:12 10° SE
SL-16 R/B 3.3 23:26:03 10° SSW 23:31:16 29° W 23:33:08 25° WNW
Skynet4D Del rocket 4.2 23:29:00 27° W 23:32:34 52° NNW 23:38:28 10° ENE
Cosmos 44 Rocket 4.5 23:32:26 24° WSW 23:32:44 24° WSW 23:36:49 10° SSW
BlueWalker 3 3.0 23:34:37 25° WSW 23:34:39 25° WSW 23:37:37 10° S
Timation 2 Rocket 4.4 23:33:34 21° NW 23:37:06 39° WSW 23:42:41 10° S
GOES 2 Rocket 3.1 23:38:31 27° W 23:40:32 52° NNW 23:44:39 10° NE
Cosmos 1782 Rocket 3.7 23:39:22 10° NNW 23:43:31 47° W 23:47:38 10° SSW
Cosmos 2061 Rocket 3.9 23:39:35 10° N 23:45:44 74° W 23:51:57 10° S
Cosmos 1190 Rocket 4.2 23:40:57 10° N 23:46:09 73° ENE 23:51:18 10° SSE
Cosmos 1300 Rocket 4.2 23:47:11 12° NNW 23:50:35 31° W 23:54:22 10° SSW
Cosmos 2233 Rocket 4.1 23:46:12 10° NNW 23:52:16 55° W 23:58:16 10° SSW
Cosmos 1378 Rocket 3.6 23:50:20 10° SSW 23:54:29 52° W 23:58:38 10° N
